| time (UTC) | temp F | wind direction | speed MPH | gust MPH | rain 1hr in | rain 24hr in | rain mn in | humidity % | barometer mb |
| 20260905114437 | 48 | 23 | 1.0 | 2.0 | 0.00 | 0.04 | 0.00 | 95 | 1016.5 |
| 20260905113417 | 48 | 0.0 | 0.0 | 0.00 | 0.04 | 0.00 | 95 | 1016.4 | |
| 20260905112417 | 49 | 0.0 | 0.0 | 0.00 | 0.04 | 0.00 | 95 | 1016.5 | |
| 20260905111416 | 48 | 0.0 | 1.0 | 0.00 | 0.04 | 0.00 | 95 | 1016.4 | |
| 20260905110417 | 48 | 68 | 1.0 | 1.0 | 0.00 | 0.04 | 0.00 | 95 | 1016.3 |
| 20260905105457 | 49 | 0.0 | 1.0 | 0.00 | 0.04 | 0.00 | 95 | 1016.4 | |
| 20260905104417 | 48 | 0.0 | 1.0 | 0.00 | 0.04 | 0.00 | 95 | 1016.2 | |
| 20260905103417 | 48 | 293 | 1.0 | 2.0 | 0.00 | 0.04 | 0.00 | 95 | 1016.1 |
| 20260905102417 | 48 | 0.0 | 0.0 | 0.00 | 0.04 | 0.00 | 95 | 1016.1 | |
| 20260905101417 | 49 | 293 | 1.0 | 1.0 | 0.00 | 0.04 | 0.00 | 95 | 1016.1 |
| 20260905100437 | 49 | 0.0 | 0.0 | 0.00 | 0.04 | 0.00 | 95 | 1016.1 | |
| 20260905095416 | 50 | 293 | 1.0 | 1.0 | 0.00 | 0.04 | 0.00 | 95 | 1016.0 |
| 20260905094416 | 50 | 0.0 | 0.0 | 0.00 | 0.04 | 0.00 | 95 | 1015.9 | |
| 20260905093416 | 50 | 0.0 | 1.0 | 0.00 | 0.04 | 0.00 | 95 | 1016.0 | |
| 20260905092416 | 51 | 0.0 | 0.0 | 0.00 | 0.04 | 0.00 | 95 | 1016.1 | |
| 20260905091417 | 50 | 0.0 | 0.0 | 0.00 | 0.04 | 0.00 | 95 | 1015.9 | |
| 20260905090417 | 50 | 0.0 | 0.0 | 0.00 | 0.04 | 0.00 | 95 | 1015.9 | |
| 20260905085417 | 50 | 0.0 | 0.0 | 0.00 | 0.04 | 0.00 | 94 | 1015.9 | |
| 20260905084417 | 51 | 0.0 | 0.0 | 0.00 | 0.04 | 0.00 | 95 | 1016.0 | |
| 20260905083417 | 51 | 0.0 | 0.0 | 0.00 | 0.04 | 0.00 | 95 | 1015.9 | |
| 20260905082416 | 51 | 0.0 | 0.0 | 0.00 | 0.04 | 0.00 | 94 | 1015.9 | |
| 20260905081416 | 51 | 0.0 | 0.0 | 0.00 | 0.04 | 0.00 | 94 | 1015.7 | |
| 20260905080416 | 51 | 0.0 | 0.0 | 0.00 | 0.04 | 0.00 | 94 | 1015.7 | |
| 20260905075416 | 51 | 0.0 | 0.0 | 0.00 | 0.04 | 0.00 | 94 | 1015.7 | |
| 20260905074417 | 51 | 0.0 | 0.0 | 0.00 | 0.04 | 0.00 | 94 | 1015.5 | |
| 20260905073417 | 53 | 0.0 | 0.0 | 0.00 | 0.04 | 0.00 | 94 | 1015.6 | |
| 20260905072416 | 52 | 0.0 | 0.0 | 0.00 | 0.04 | 0.00 | 94 | 1015.6 | |
| 20260905071416 | 52 | 0.0 | 0.0 | 0.00 | 0.04 | 0.00 | 94 | 1015.4 | |
| 20260905070416 | 53 | 0.0 | 1.0 | 0.00 | 0.04 | 0.00 | 94 | 1015.4 | |
| 20260905065415 | 52 | 0.0 | 0.0 | 0.00 | 0.04 | 0.04 | 93 | 1015.2 | |
| 20260905064415 | 53 | 0.0 | 0.0 | 0.00 | 0.04 | 0.04 | 94 | 1015.2 | |
| 20260905063415 | 53 | 0.0 | 0.0 | 0.00 | 0.04 | 0.04 | 93 | 1015.1 | |
| 20260905062416 | 54 | 0.0 | 0.0 | 0.00 | 0.04 | 0.04 | 93 | 1015.1 | |
| 20260905061415 | 54 | 0.0 | 0.0 | 0.00 | 0.04 | 0.04 | 93 | 1015.0 | |
| 20260905060415 | 54 | 0.0 | 0.0 | 0.00 | 0.04 | 0.04 | 93 | 1014.9 | |
| 20260905055436 | 54 | 0.0 | 0.0 | 0.01 | 0.04 | 0.04 | 93 | 1014.9 | |
| 20260905054415 | 54 | 0.0 | 0.0 | 0.01 | 0.04 | 0.04 | 93 | 1014.8 | |
| 20260905053415 | 54 | 0.0 | 0.0 | 0.01 | 0.04 | 0.04 | 93 | 1014.8 | |
| 20260905052415 | 54 | 0.0 | 1.0 | 0.01 | 0.04 | 0.04 | 93 | 1014.8 | |
| 20260905051415 | 54 | 0 | 1.0 | 1.0 | 0.01 | 0.04 | 0.04 | 92 | 1014.7 |
| 20260905050416 | 55 | 0.0 | 0.0 | 0.01 | 0.04 | 0.04 | 92 | 1014.7 | |
| 20260905045415 | 55 | 0.0 | 0.0 | 0.00 | 0.03 | 0.03 | 92 | 1014.7 | |
| 20260905044435 | 55 | 0.0 | 0.0 | 0.00 | 0.03 | 0.03 | 92 | 1014.6 | |
| 20260905043416 | 56 | 0.0 | 0.0 | 0.00 | 0.03 | 0.03 | 92 | 1014.6 | |
| 20260905042415 | 56 | 0.0 | 0.0 | 0.00 | 0.03 | 0.03 | 91 | 1014.6 | |
| 20260905041415 | 56 | 0.0 | 0.0 | 0.00 | 0.03 | 0.03 | 91 | 1014.6 | |
| 20260905040415 | 57 | 0.0 | 0.0 | 0.00 | 0.03 | 0.03 | 90 | 1014.6 | |
| 20260905035415 | 57 | 0.0 | 0.0 | 0.00 | 0.03 | 0.03 | 90 | 1014.6 | |
| 20260905034415 | 58 | 0.0 | 0.0 | 0.00 | 0.03 | 0.03 | 90 | 1014.5 | |
| 20260905033416 | 58 | 0.0 | 0.0 | 0.01 | 0.03 | 0.03 | 89 | 1014.6 | |
| 20260905032415 | 59 | 0.0 | 1.0 | 0.02 | 0.03 | 0.03 | 88 | 1014.5 | |
| 20260905031415 | 59 | 225 | 1.0 | 2.0 | 0.02 | 0.03 | 0.03 | 89 | 1014.3 |
| 20260905030416 | 59 | 0.0 | 1.0 | 0.02 | 0.03 | 0.03 | 88 | 1014.1 | |
| 20260905025415 | 60 | 68 | 1.0 | 2.0 | 0.02 | 0.03 | 0.03 | 84 | 1014.1 |
| 20260905024415 | 62 | 0.0 | 0.0 | 0.02 | 0.03 | 0.03 | 82 | 1014.0 | |
| 20260905023415 | 63 | 338 | 1.0 | 2.0 | 0.01 | 0.02 | 0.02 | 79 | 1014.2 |
| 20260905022435 | 63 | 23 | 1.0 | 2.0 | 0.00 | 0.01 | 0.01 | 74 | 1014.2 |
| 20260905021415 | 63 | 180 | 2.0 | 6.0 | 0.00 | 0.01 | 0.01 | 72 | 1014.2 |
| 20260905020415 | 64 | 113 | 3.0 | 6.0 | 0.00 | 0.01 | 0.01 | 68 | 1014.3 |
| 20260905015415 | 65 | 45 | 1.0 | 2.0 | 0.00 | 0.01 | 0.01 | 68 | 1013.8 |
| 20260905014415 | 66 | 68 | 5.0 | 8.0 | 0.00 | 0.01 | 0.01 | 65 | 1013.6 |
| 20260905013435 | 68 | 68 | 9.0 | 17.0 | 0.00 | 0.01 | 0.01 | 63 | 1013.4 |
| 20260905012415 | 68 | 0.0 | 1.0 | 0.00 | 0.01 | 0.01 | 65 | 1013.2 | |
| 20260905011415 | 68 | 45 | 1.0 | 2.0 | 0.00 | 0.01 | 0.01 | 62 | 1013.1 |
| 20260905010415 | 69 | 0.0 | 1.0 | 0.00 | 0.01 | 0.01 | 60 | 1013.0 | |
| 20260905005415 | 69 | 0.0 | 0.0 | 0.00 | 0.01 | 0.01 | 58 | 1012.9 | |
| 20260905004415 | 69 | 68 | 1.0 | 2.0 | 0.00 | 0.01 | 0.01 | 55 | 1012.9 |
| 20260905003415 | 70 | 68 | 4.0 | 6.0 | 0.00 | 0.01 | 0.01 | 52 | 1012.9 |
| 20260905002415 | 71 | 45 | 3.0 | 5.0 | 0.00 | 0.01 | 0.01 | 50 | 1012.7 |
| 20260905001415 | 72 | 68 | 1.0 | 3.0 | 0.00 | 0.01 | 0.01 | 50 | 1012.7 |
| 20260905000417 | 72 | 0.0 | 0.0 | 0.00 | 0.01 | 0.01 | 50 | 1012.5 | |
| 20260904235435 | 71 | 180 | 1.0 | 2.0 | 0.00 | 0.01 | 0.01 | 52 | 1012.6 |
| 20260904234415 | 71 | 68 | 2.0 | 6.0 | 0.00 | 0.01 | 0.01 | 54 | 1012.6 |
| 20260904233415 | 70 | 270 | 1.0 | 2.0 | 0.00 | 0.01 | 0.01 | 54 | 1012.6 |
| 20260904232455 | 70 | 0.0 | 1.0 | 0.00 | 0.01 | 0.01 | 56 | 1012.5 | |
| 20260904231415 | 70 | 68 | 1.0 | 3.0 | 0.00 | 0.02 | 0.01 | 55 | 1012.6 |
| 20260904230416 | 70 | 68 | 2.0 | 4.0 | 0.00 | 0.02 | 0.01 | 56 | 1012.8 |
| 20260904225415 | 71 | 68 | 2.0 | 5.0 | 0.00 | 0.02 | 0.01 | 54 | 1012.9 |
| 20260904224415 | 72 | 23 | 2.0 | 6.0 | 0.01 | 0.02 | 0.01 | 51 | 1012.9 |
| 20260904223416 | 70 | 270 | 2.0 | 3.0 | 0.01 | 0.02 | 0.01 | 54 | 1012.8 |
| 20260904222415 | 70 | 293 | 2.0 | 4.0 | 0.01 | 0.03 | 0.01 | 55 | 1012.8 |
| 20260904221415 | 69 | 0 | 1.0 | 2.0 | 0.01 | 0.03 | 0.01 | 58 | 1012.7 |
| 20260904220415 | 67 | 23 | 2.0 | 4.0 | 0.01 | 0.03 | 0.01 | 60 | 1012.7 |
| 20260904215415 | 67 | 23 | 5.0 | 7.0 | 0.01 | 0.03 | 0.01 | 59 | 1012.8 |
| 20260904214415 | 68 | 0 | 2.0 | 6.0 | 0.00 | 0.03 | 0.00 | 59 | 1012.8 |
| 20260904213415 | 68 | 45 | 4.0 | 6.0 | 0.00 | 0.03 | 0.00 | 60 | 1012.8 |
| 20260904212415 | 67 | 45 | 4.0 | 8.0 | 0.00 | 0.03 | 0.00 | 61 | 1012.7 |
| 20260904211455 | 67 | 45 | 2.0 | 4.0 | 0.00 | 0.03 | 0.00 | 62 | 1012.7 |
| 20260904210435 | 67 | 45 | 3.0 | 5.0 | 0.00 | 0.03 | 0.00 | 61 | 1012.7 |
| 20260904205415 | 67 | 23 | 3.0 | 6.0 | 0.00 | 0.03 | 0.00 | 60 | 1012.7 |
| 20260904204415 | 68 | 0.0 | 0.0 | 0.00 | 0.03 | 0.00 | 59 | 1012.6 | |
| 20260904203415 | 68 | 68 | 2.0 | 4.0 | 0.00 | 0.03 | 0.00 | 56 | 1012.6 |
| 20260904202415 | 68 | 248 | 4.0 | 7.0 | 0.00 | 0.03 | 0.00 | 58 | 1012.7 |
| 20260904201415 | 67 | 293 | 3.0 | 5.0 | 0.00 | 0.03 | 0.00 | 61 | 1012.5 |
| 20260904200415 | 66 | 203 | 3.0 | 5.0 | 0.00 | 0.03 | 0.00 | 64 | 1012.6 |
| 20260904195415 | 66 | 248 | 2.0 | 4.0 | 0.00 | 0.04 | 0.00 | 64 | 1012.6 |
| 20260904194415 | 66 | 180 | 1.0 | 2.0 | 0.00 | 0.04 | 0.00 | 65 | 1012.5 |
| 20260904193415 | 65 | 0.0 | 1.0 | 0.00 | 0.04 | 0.00 | 67 | 1012.5 | |
| 20260904192415 | 65 | 225 | 1.0 | 2.0 | 0.00 | 0.04 | 0.00 | 67 | 1012.4 |
| 20260904191415 | 65 | 225 | 3.0 | 5.0 | 0.00 | 0.04 | 0.00 | 66 | 1012.6 |
| 20260904190416 | 65 | 293 | 1.0 | 2.0 | 0.00 | 0.04 | 0.00 | 66 | 1012.7 |
| 20260904185415 | 64 | 23 | 3.0 | 5.0 | 0.00 | 0.04 | 0.00 | 69 | 1012.8 |
| 20260904184455 | 63 | 23 | 1.0 | 3.0 | 0.00 | 0.04 | 0.00 | 71 | 1012.8 |
| 20260904183415 | 63 | 45 | 1.0 | 2.0 | 0.00 | 0.04 | 0.00 | 73 | 1012.8 |
| 20260904182415 | 62 | 90 | 2.0 | 5.0 | 0.00 | 0.04 | 0.00 | 73 | 1012.8 |
| 20260904181415 | 62 | 68 | 3.0 | 5.0 | 0.00 | 0.04 | 0.00 | 74 | 1012.8 |
| 20260904180435 | 63 | 45 | 2.0 | 3.0 | 0.00 | 0.04 | 0.00 | 75 | 1012.7 |
| 20260904175415 | 61 | 90 | 2.0 | 4.0 | 0.00 | 0.04 | 0.00 | 76 | 1012.7 |
| 20260904174415 | 61 | 45 | 2.0 | 4.0 | 0.00 | 0.04 | 0.00 | 78 | 1012.7 |
| 20260904173415 | 61 | 45 | 3.0 | 5.0 | 0.00 | 0.04 | 0.00 | 80 | 1012.7 |
| 20260904172435 | 60 | 45 | 2.0 | 4.0 | 0.00 | 0.04 | 0.00 | 83 | 1012.6 |
| 20260904171415 | 59 | 45 | 3.0 | 5.0 | 0.00 | 0.04 | 0.00 | 84 | 1012.5 |
| 20260904170415 | 59 | 23 | 2.0 | 4.0 | 0.00 | 0.04 | 0.00 | 86 | 1012.5 |
| 20260904165435 | 59 | 68 | 1.0 | 3.0 | 0.00 | 0.04 | 0.00 | 88 | 1012.5 |
| 20260904164415 | 58 | 23 | 2.0 | 2.0 | 0.00 | 0.04 | 0.00 | 90 | 1012.5 |
| 20260904163435 | 57 | 23 | 2.0 | 3.0 | 0.00 | 0.04 | 0.00 | 92 | 1012.5 |
| 20260904162415 | 57 | 0.0 | 1.0 | 0.00 | 0.04 | 0.00 | 93 | 1012.5 | |
| 20260904161435 | 56 | 45 | 1.0 | 2.0 | 0.00 | 0.04 | 0.00 | 94 | 1012.4 |
| 20260904160415 | 55 | 0.0 | 1.0 | 0.00 | 0.04 | 0.00 | 94 | 1012.3 | |
| 20260904155417 | 54 | 0.0 | 1.0 | 0.00 | 0.04 | 0.00 | 95 | 1012.3 | |
| 20260904154415 | 54 | 0.0 | 0.0 | 0.00 | 0.04 | 0.00 | 95 | 1012.2 | |
| 20260904153415 | 54 | 0.0 | 0.0 | 0.00 | 0.04 | 0.00 | 95 | 1012.2 | |
| 20260904152415 | 53 | 0.0 | 0.0 | 0.00 | 0.04 | 0.00 | 95 | 1012.1 | |
| 20260904151417 | 53 | 0 | 1.0 | 1.0 | 0.00 | 0.04 | 0.00 | 95 | 1012.2 |
| 20260904150415 | 53 | 0 | 1.0 | 2.0 | 0.00 | 0.04 | 0.00 | 95 | 1012.1 |
| 20260904145415 | 52 | 0.0 | 0.0 | 0.00 | 0.05 | 0.00 | 95 | 1012.0 | |
| 20260904144417 | 51 | 0.0 | 1.0 | 0.00 | 0.06 | 0.00 | 95 | 1011.8 | |
| 20260904143435 | 51 | 248 | 2.0 | 4.0 | 0.00 | 0.07 | 0.00 | 95 | 1011.9 |
| 20260904142415 | 51 | 225 | 2.0 | 4.0 | 0.00 | 0.08 | 0.00 | 95 | 1011.7 |
| 20260904141415 | 51 | 0.0 | 0.0 | 0.00 | 0.17 | 0.00 | 95 | 1011.3 | |
| 20260904140437 | 51 | 0.0 | 1.0 | 0.00 | 0.26 | 0.00 | 95 | 1011.2 | |
| 20260904135417 | 51 | 0.0 | 1.0 | 0.00 | 0.28 | 0.00 | 95 | 1011.1 | |
| 20260904134417 | 52 | 248 | 1.0 | 1.0 | 0.00 | 0.30 | 0.00 | 94 | 1010.9 |
| 20260904133417 | 52 | 225 | 2.0 | 3.0 | 0.00 | 0.32 | 0.00 | 94 | 1010.8 |
| 20260904132437 | 52 | 0.0 | 0.0 | 0.00 | 0.33 | 0.00 | 95 | 1010.8 | |
| 20260904131638 | 52 | 0.0 | 0.0 | 0.00 | 0.34 | 0.00 | 95 | 1010.8 | |
| 20260904130717 | 52 | 0.0 | 1.0 | 0.00 | 0.35 | 0.00 | 95 | 1010.8 | |
| 20260904125717 | 53 | 45 | 1.0 | 2.0 | 0.00 | 0.35 | 0.00 | 95 | 1010.7 |
| 20260904124717 | 52 | 23 | 2.0 | 3.0 | 0.00 | 0.35 | 0.00 | 95 | 1010.7 |
| 20260904123717 | 52 | 23 | 1.0 | 2.0 | 0.00 | 0.36 | 0.00 | 95 | 1010.7 |
| 20260904122737 | 52 | 23 | 1.0 | 1.0 | 0.00 | 0.38 | 0.00 | 95 | 1010.7 |
| 20260904121717 | 51 | 0.0 | 0.0 | 0.00 | 0.40 | 0.00 | 95 | 1010.9 | |
| 20260904120717 | 51 | 248 | 1.0 | 3.0 | 0.00 | 0.42 | 0.00 | 94 | 1010.9 |
| 20260904115737 | 51 | 0.0 | 0.0 | 0.00 | 0.43 | 0.00 | 95 | 1010.8 |